Terminal Aerodrome Forecast
Issued by NWS La Crosse, WI

Home | Current Version | Previous Version | Text Only | Print | Product List | Glossary On
Versions: 1 2 3 4 5 6 7 8 9 10 11 12 13 14 15 16 17 18 19 20 21 22 23 24 25 26 27 28 29 30 31 32 33 34
118
FTUS43 KARX 131131
TAFRST
TAF
KRST 131131Z 1312/1412 32006KT P6SM SKC
     FM132200 15008KT P6SM SCT140
     FM140700 15014G20KT 3SM -SN SCT015 BKN035=

USA.gov is the U.S. government's official web portal to all federal, state and local government web resources and services.